User: anonymous   Login
Location: Melbourne
(37.8170°S, 144.9670°E)
Time: 03:05:19
(UTC+11:00)
Language:

ISS - Orbit

View from above orbital plane
View from above orbital plane
View from above satellite
View from above satellite

Ground track
Ground track

The orbit data is extracted from the following two-line orbital elements,

1 25544U 98067A   17293.55189272  .00016717  00000-0  10270-3 0  9020
2 25544  51.6381 133.3721 0005157  36.3536 323.7966 15.54181738  1246
Epoch (UTC): 20 October 2017 13:14:43
Eccentricity: 0.0005157
inclination: 51.6381°
perigee height: 401 km
apogee height: 408 km
right ascension of ascending node: 133.3721°
argument of perigee: 36.3536°
revolutions per day: 15.54181738
mean anomaly at epoch: 323.7966°
orbit number at epoch: 124

The dashed part of the orbit path shows where the satellite is in the earth's shadow,  

DLR